Regional Weather Roundup
Issued by NWS

Home | Current Version | Previous Version | Text Only | Print | Product List | Glossary On
Versions: 1 2 3 4 5 6 7 8 9 10 11 12 13 14 15 16 17 18 19 20 21 22 23 24 25 26 27 28 29 30 31 32 33 34 35 36 37 38 39 40 41 42 43 44 45 46 47 48 49 50
000
ASUS45 KTFX 251919
RWRMT
MONTANA HOURLY WEATHER ROUNDUP
NATIONAL WEATHER SERVICE GREAT FALLS MT
119 PM MDT SAT OCT 25 2014

NOTE: "FAIR" INDICATES FEW OR NO CLOUDS BELOW 12000 FEET WITH NO
SIGNIFICANT WEATHER AND/OR OBSTRUCTIONS TO VISIBILITY.

* THESE STATIONS ARE NOT UNDER NWS QUALITY CONTROL. THEY DO NOT
   REPORT WEATHER SUCH AS PRECIPITATION OR FOG.

MTZ001>007-043-252000-
WEST OF THE DIVIDE
CITY           SKY/WX    TMP DP  RH WIND       PRES   REMARKS
KALISPELL      CLOUDY    50  41  71 NE6       29.79F
MISSOULA       CLOUDY    48  43  83 SE6       29.84F
BUTTE          PTSUNNY   61  37  41 CALM      29.91F
MULLAN PASS    FOG       37  37 100 S12       29.78F VSB M1/4 WCI  29
* ESSEX        N/A       49  37  63 S10        N/A
* LINCOLN      N/A       37  36  96 SW2        N/A
* LOOKOUT PASS N/A       41  40  96 S14G22     N/A
* POLSON       N/A       46  43  89 SW1        N/A
* RONAN APT    CLOUDY    46  45  96 N/A        N/A
* SEELEY LAKE  N/A       40  38  93 S2         N/A
* THOMP F APT  CLOUDY    59  28  31 S11G19     N/A
* YAAK HILL    N/A       45  42  89 SE3G9      N/A
$$

MTZ008-052>055-252000-
SOUTHWEST MONTANA
CITY           SKY/WX    TMP DP  RH WIND       PRES   REMARKS
BOZEMAN        PTCLDY    45  41  86 CALM      29.91F
DILLON         PTCLDY    55  41  59 VRB3      29.90F
W YELLOWSTONE  SUNNY     63  28  27 S13G24    30.04F
* THREE FORKS  SUNNY     43  23  45 N/A        N/A
* BOULDER HILL N/A       49  30  48 S14        N/A
* MONIDA PASS  N/A       57  29  34 SE17G26    N/A
* RAYNOLDS PAS N/A       62  39  43 SE19G26    N/A
* WHITEHALL    N/A       42  41  96 S2         N/A
* WISE RIVER   N/A       42  38  86 NW2G9      N/A
$$

MTZ009>010-012-014-046-048-049-054-252000-
EAST SLOPES AND CENTRAL MONTANA
CITY           SKY/WX    TMP DP  RH WIND       PRES   REMARKS
CUT BANK       PTSUNNY   52  37  57 SE14      29.81F
GREAT FALLS    PTSUNNY   55  43  64 CALM      29.82F
HELENA         CLOUDY    48  41  77 VRB3      29.88F
MALMSTROM AFB  PTSUNNY   54  41  62 N5        29.84F
* CONRAD       PTSUNNY   54  43  67 E6         N/A
* DEARBORN     N/A       53  41  64 S6         N/A
* EAST GLACIER N/A       46  35  66 S3         N/A
* MONARCH      N/A       67  21  17 S12G18     N/A
* PENDROY      N/A       48  39  71 SE11       N/A
* SAINT MARY   N/A       46  37  71 W4         N/A
* SWEET GRASS  N/A       53  31  43 S17G27     N/A
* WHITE SULPH  N/A       65  36  34 E5         N/A
$$

MTZ011-013-016-021-035-040-045-047-050-051-252000-
NORTH CENTRAL MONTANA
CITY           SKY/WX    TMP DP  RH WIND       PRES   REMARKS
HAVRE          PTSUNNY   64  36  35 NE16      29.83F
LEWISTOWN      SUNNY     66  43  43 VRB3      29.86F
* CHESTER      N/A       56  35  45 SE8G15     N/A
* DENTON       N/A       66  39  37 SE10       N/A
* GEYSER       N/A       57  40  53 NE2        N/A
* JUDITH GAP   N/A       56  37  49 S16        N/A
* LOMA         N/A       58  40  51 E9G14      N/A
$$

MTZ017>020-022>027-061-062-252000-
NORTHEAST MONTANA
CITY           SKY/WX    TMP DP  RH WIND       PRES   REMARKS
GLASGOW        SUNNY     61  34  36 E15       29.96F
GLENDIVE       SUNNY     64  30  28 SE12G20   30.01F
JORDAN         SUNNY     64  34  33 SE13      29.94F
SIDNEY         SUNNY     64  30  28 SE8       30.04F
WOLF POINT     SUNNY     64  34  33 E8        29.99F
* BEAVER HILL  N/A       62  29  29 SE18G24    N/A
* CIRCLE       N/A       63  36  37 SE9        N/A
* LINDSAY DVD  N/A       60  30  32 E19G26     N/A
* NAVAJO       N/A       58  27  31 S12        N/A
* SACO         N/A       60  33  36 E14G19     N/A
$$

MTZ028>042-056>058-252000-
SOUTHCENTRAL AND SOUTHEAST MONTANA
CITY           SKY/WX    TMP DP  RH WIND       PRES   REMARKS
BAKER          SUNNY     64  30  28 SE21      30.03F
BILLINGS       SUNNY     55  36  49 E3        29.93F
LIVINGSTON     SUNNY     59  37  44 E9        29.91F
MILES CITY     SUNNY     64  36  35 SE15      29.96F
* LAUREL APT   SUNNY     55  36  49 NE7        N/A
* ROUNDUP APT  SUNNY     57  34  42 S5         N/A
* ALZADA       N/A       63  35  35 E9         N/A
* HYSHAM       N/A      N/A N/A N/A N/A        N/A
* LAME DEER    N/A       61  36  39 SE6G12     N/A
* REED POINT   N/A       58  35  42 SW1        N/A
* ROSCOE HILL  N/A       65  34  32 NE8        N/A
$$

REGIONAL REPORTS...DAKOTAS
CITY           SKY/WX    TMP DP  RH WIND       PRES   REMARKS
WILLISTON      SUNNY     59  28  31 SE7       30.06F
DICKINSON      SUNNY     63  28  27 SE10      30.06F
BEACH          N/A       63  28  27 N/A       30.04F
CROSBY         PTSUNNY   55  30  39 S13       30.08F
TIOGA          CLOUDY    55  28  35 S9G17     30.11F
BISMARCK       SUNNY     63  30  29 SE6       30.12F
GRAND FORKS    SUNNY     59  25  27 NW17G23   30.06F
FARGO          SUNNY     61  28  29 NW15      30.09F
BUFFALO SD     SUNNY     64  30  28 SE15G25   29.99F
RAPID CITY     SUNNY     64  34  33 S18       30.08F
$$

REGIONAL REPORTS...WYOMING/IDAHO/WASHINGTON
CITY           SKY/WX    TMP DP  RH WIND       PRES   REMARKS
GILLETTE       SUNNY     68  36  31 SE18G25   30.03F
SHERIDAN       SUNNY     63  36  37 VRB3      29.96F
CODY           SUNNY     72  30  21 NE9       29.96F
YELLOWSTONE LA SUNNY     59  25  27 CALM      30.16F
SALMON         CLOUDY    46  39  77 N3        29.90F
MULLAN PASS    FOG       37  37 100 S12       29.78S VSB M1/4 WCI  29
SAND POINT     PTSUNNY   52  39  61 NE14G20   29.69F
SPOKANE        PTSUNNY   54  43  67 NE8       29.62F
$$

REGIONAL REPORTS...ALBERTA
CITY           SKY/WX    TMP DP  RH WIND       PRES   REMARKS
CALGARY        PTSUNNY   43  25  49 SE10      29.80F
MEDICINE HAT   CLOUDY    54  28  37 E14       29.86F
EDMONTON       PTSUNNY   45  25  45 SE16      29.86F
WATERTON GATE  N/A       45  32  60 N1         N/A
CARDSTON       N/A       46  36  68 W3         N/A
MILK RIVER     N/A       54  34  47 S20        N/A
$$

REGIONAL REPORTS...SASKATCHEWAN
CITY           SKY/WX    TMP DP  RH WIND       PRES   REMARKS
SWIFT CURRENT  PTSUNNY   55  25  31 S10       29.96F
REGINA         PTCLDY    52  34  50 SE5       30.04F
VAL MARIE      N/A       59  30  33 SE16       N/A
ASSINIBOIA     N/A       52  25  35 S7         N/A
CORONACH       N/A       59  28  31 SE10       N/A

$$




USA.gov is the U.S. government's official web portal to all federal, state and local government web resources and services.